Weather in Krasnoselskoye

Russia / Samara Oblast     54°01′48″N   50°55′37″E
temp.,
°C
wind,
m/s
gust,
m/s
humid.,
%
clouds,
%
prec.,
mm/h
press.,
hPa
HPBL,
m
22 january, fri
fri2201:00−10wsw51094100 0.5 1017376
04:00−12wsw499599 0.9 1016301
07:00−13wsw379697 0.2 1016223
10:00−14wsw369798 0.3 1017154
13:00−13w249599 0.0 1019193
16:00−15w229598 0.0 101920
19:00−18nw119999 0.0 102120
22:00−19ne1110096 0.0 102320
23 january, sat
sat2301:00−20se1110075 0.0 102520
04:00−18ese239688 0.0 102558
07:00−16se4896100 0.0 1026229
10:00−14sse51095100 0.5 1026289
13:00−12sse61195100 0.7 1025355
16:00−10sse61195100 1.6 1023355
19:00−9s5995100 1.1 1022289
22:00−7sse41096100 1.4 1021215
24 january, sun
sun2401:00−2s3698100 1.3 1021189
04:00+1wsw41099100 2.1 1021321
07:00+1wsw4899100 0.1 1021258
10:00+1sw39100100 0.1 1023292
13:00+1ssw37100100 0.0 1024244
16:00+1ssw49100100 0.0 1024298
19:000ssw5997100 0.0 1026316
22:00−1ssw499399 0.0 1027279
25 january, mon
mon2501:00−4ssw4109697 0.0 1028218
04:00−3ssw4119696 0.0 1028281
07:00−3ssw5109697 0.0 1029296
10:00−5s399696 0.0 1030224
13:00−2s6998100 0.0 1030367
16:00−1s5995100 0.0 1029493
19:00−2s5995100 0.0 1029517
22:00−1sse51093100 0.0 1028621
26 january, tue
tue2601:00−2s61194100 0.0 1028619
04:00−2s51095100 0.1 1028615
07:00−2s51094100 0.0 1027628
10:00−1s61092100 0.1 1028630
13:00−2s6992100 0.0 1028631
16:00−3s599498 0.1 1027505
19:00−3sse51094100 0.0 1027508
22:00−4sse61195100 0.1 1026433